Wind_Speed
2 1 2 2 3 6 7 8 8 8 8 8 8 9 10 9 8 6 6 8 10 7 3 3 3 1 1 4 7 9 12 13 14 15 13 10 9 10 9 9 13 12 10 14 16 17 17 18 19 19 20 22 23 24 25 25 25 24 23 23 23 23 24 25 26 27 27 27 27 27 27 28 29 29 30 31 32 32 33 32 32 32 32 32 32 32
2 1 4 4 5 7 8 9 9 8 8 6 4 7 10 10 10 10 7 8 9 7 3 3 4 3 4 7 8 10 13 13 12 13 14 11 10 12 10 9 12 13 12 16 18 18 20 21 20 21 23 25 26 27 27 27 27 26 26 27 27 28 28 29 29 29 29 28 28 29 29 29 30 31 31 33 33 34 34 33 33 33 33 33 33 33
2 2 5 6 6 8 7 7 6 5 4 2 2 5 7 8 11 9 7 9 10 10 7 6 7 6 7 8 9 10 12 12 11 12 14 12 9 10 10 11 14 13 14 19 21 20 22 22 22 24 25 27 28 28 29 29 30 30 31 31 32 32 32 32 32 31 31 31 31 31 31 32 32 32 33 34 35 35 35 35 35 35 35 35 35 35
2 4 6 7 8 6 4 3 2 1 2 1 0 2 5 9 10 6 7 11 11 12 10 9 8 8 9 9 10 10 11 11 10 10 12 13 11 9 10 11 13 14 16 21 23 22 23 24 25 27 28 29 30 31 31 32 33 33 33 34 34 34 33 33 33 32 32 32 32 32 33 33 33 33 34 35 35 35 35 34 35 35 35 35 36 36
4 7 7 7 4 1 3 3 2 2 1 2 2 2 5 9 5 5 9 9 10 11 10 8 8 7 8 8 8 9 10 10 9 7 8 11 13 12 11 11 13 17 20 22 23 24 24 26 27 28 29 30 30 31 32 33 33 33 34 34 34 33 33 32 32 32 32 32 32 32 32 32 32 33 34 34 34 34 34 34 34 35 35 35 36 36
8 8 6 3 2 1 3 3 2 3 3 2 3 2 6 5 2 6 8 8 9 9 8 7 7 6 6 6 6 9 12 12 10 8 8 9 13 15 15 14 15 17 20 22 24 24 25 26 27 28 29 29 30 31 31 32 32 32 32 32 32 31 31 31 30 30 30 30 31 31 31 31 32 32 33 33 33 34 34 34 35 35 35 35 35 35
8 6 6 5 4 2 3 5 3 4 3 1 3 3 5 1 5 5 7 8 6 7 7 7 6 5 5 5 5 9 13 14 11 8 10 11 12 14 16 15 17 19 19 22 24 24 25 26 26 27 28 28 29 29 30 31 31 31 31 30 30 29 29 29 29 29 29 29 29 30 30 31 31 32 33 33 34 34 35 35 35 35 35 35 35 35
8 9 11 7 5 5 4 3 3 3 2 3 4 5 5 1 5 5 7 7 5 7 8 6 5 4 4 4 5 8 11 12 11 9 10 12 10 11 15 15 16 18 18 20 23 23 24 25 25 26 26 27 28 28 29 30 30 30 29 29 29 28 28 28 28 28 28 28 29 29 29 30 30 31 32 33 34 34 35 35 35 35 35 35 35 35
11 11 12 9 6 6 6 5 4 1 2 4 3 1 1 4 7 7 5 3 4 7 6 2 2 3 3 4 5 8 9 9 11 10 10 12 12 12 14 14 14 16 16 18 21 22 22 23 24 24 25 26 27 28 28 29 29 29 29 29 29 29 28 28 28 28 28 28 28 28 28 29 29 30 31 31 32 33 33 34 34 34 34 35 35 35
13 13 11 10 6 6 6 7 7 3 2 1 3 4 8 12 10 8 4 1 4 6 3 3 2 2 3 5 7 9 11 11 13 14 12 13 14 13 12 14 15 14 14 16 19 20 22 22 23 23 24 25 26 27 28 29 29 29 30 30 30 30 30 30 30 29 29 29 28 28 28 28 29 29 30 31 31 32 33 34 34 34 34 34 34 35
15 15 11 10 7 5 5 7 9 6 0 4 9 9 12 16 12 9 6 1 3 6 5 5 3 2 4 5 7 10 13 13 13 14 15 14 14 13 13 14 14 11 9 11 14 17 20 22 23 24 25 26 27 28 29 29 30 30 30 30 30 30 30 31 30 30 30 30 29 29 29 29 30 30 31 31 32 33 33 34 34 34 35 35 36 36
15 16 14 12 7 4 5 7 8 7 5 10 14 13 15 17 14 11 8 3 3 7 7 5 3 3 3 5 9 13 15 15 15 15 16 16 16 15 13 12 12 11 9 8 10 14 18 21 23 25 26 27 28 28 29 29 30 30 30 30 30 30 30 30 30 30 30 30 30 30 30 30 30 31 31 31 32 32 33 33 34 34 35 36 37 37
14 16 16 13 8 7 10 10 9 10 12 14 14 13 15 15 13 12 8 5 5 8 8 7 5 2 4 8 13 16 17 18 17 16 16 16 16 14 13 12 11 11 9 8 10 14 17 20 23 26 27 28 28 29 29 29 29 29 30 29 29 29 29 30 30 30 30 30 30 30 30 31 31 31 31 32 32 32 33 33 34 35 35 36 37 38
15 16 16 14 12 12 15 14 12 15 17 14 12 11 13 13 12 11 8 6 6 8 9 9 7 5 8 13 16 16 16 16 16 15 15 14 14 13 14 13 12 11 9 9 12 16 18 21 24 26 27 28 29 29 29 30 29 29 29 29 29 29 29 29 29 29 29 30 30 31 31 31 32 32 32 33 33 33 34 34 35 35 36 37 38 39
16 16 16 16 16 16 18 17 17 18 15 11 10 11 12 12 11 10 9 8 8 8 10 11 9 8 12 15 15 15 15 14 13 13 13 12 13 12 13 14 13 12 11 12 16 17 19 22 24 25 27 28 29 30 31 31 30 30 29 29 28 28 28 28 29 29 30 30 31 31 32 33 33 34 34 35 35 35 35 36 36 36 37 38 39 39
16 16 17 19 19 18 17 18 18 18 13 8 9 11 13 13 12 10 10 11 10 10 13 13 11 12 15 15 14 14 13 13 12 12 12 11 12 12 13 14 15 14 13 14 16 17 18 20 21 22 25 27 28 30 32 32 32 31 30 29 28 28 28 28 28 29 29 30 31 31 32 33 34 35 35 36 36 37 37 37 37 38 38 39 40 40
16 18 20 21 20 19 17 17 18 17 14 11 10 12 14 13 13 11 10 12 11 11 14 14 12 14 16 13 13 12 11 12 11 11 11 10 11 11 13 14 16 16 15 15 16 16 17 19 20 21 23 26 27 30 32 33 34 33 33 32 30 29 28 28 28 28 28 29 29 30 32 33 34 34 35 36 37 38 37 37 38 38 39 40 41 42
17 18 20 20 20 20 18 17 17 16 18 18 14 14 15 14 14 12 11 13 13 12 15 16 14 15 14 11 11 11 10 10 10 9 9 9 9 11 13 14 15 16 16 16 17 17 18 19 21 21 23 24 25 28 30 31 32 33 34 34 34 32 31 30 29 29 29 29 30 30 31 32 33 34 35 36 37 37 38 38 38 39 40 41 42 43
19 18 19 19 19 20 20 19 18 17 20 20 17 15 15 15 15 13 11 12 13 14 16 17 16 15 13 10 9 9 9 8 8 8 8 8 9 10 12 13 14 14 15 16 16 16 17 19 20 20 24 26 24 25 27 28 29 30 31 33 35 35 34 33 32 31 30 30 30 31 31 32 33 33 34 35 37 38 38 39 39 40 41 41 42 44
20 19 19 19 20 20 21 21 21 20 19 19 17 16 15 15 14 13 13 11 11 15 17 17 18 16 13 12 10 8 8 7 7 7 7 8 8 8 10 11 12 13 14 16 16 14 14 17 19 20 22 25 24 23 23 25 26 27 27 28 31 34 34 34 34 33 32 32 31 31 32 32 33 33 35 36 37 38 39 40 40 41 42 42 43 44
21 20 20 20 21 21 21 22 22 22 20 19 18 18 17 15 12 13 14 11 10 15 18 19 20 18 15 15 12 9 8 7 6 6 6 7 7 7 8 8 10 12 14 16 17 15 14 16 19 20 22 23 23 23 23 23 23 25 26 26 26 30 33 33 33 34 33 33 33 33 33 34 34 35 36 37 38 39 40 40 41 42 43 44 44 45
23 23 22 21 22 21 20 21 22 22 22 21 20 20 19 16 12 12 13 13 12 14 18 21 19 17 16 16 12 10 9 7 5 5 5 5 5 6 6 6 8 10 13 15 16 16 15 16 18 19 21 22 22 22 22 22 21 22 25 25 25 28 31 32 33 33 34 34 34 35 36 36 37 37 37 39 40 41 41 41 42 42 43 45 45 46
27 25 24 23 22 21 22 22 21 21 22 21 21 21 21 19 15 13 15 15 15 14 19 22 19 15 17 17 12 10 8 6 5 4 4 5 5 5 5 4 6 8 10 13 15 15 15 17 18 18 19 20 21 21 20 20 20 21 24 25 26 28 31 32 33 33 33 34 35 37 38 39 39 40 40 40 41 42 42 43 43 43 44 45 47 48
30 27 26 25 23 23 24 23 23 22 21 21 21 20 21 20 17 16 17 17 17 16 19 23 20 16 17 16 13 10 8 6 4 4 5 5 5 5 4 2 4 6 5 8 11 13 15 16 18 18 18 19 20 20 20 20 20 21 24 26 27 29 31 32 33 34 34 34 35 37 38 40 40 41 41 42 42 43 44 44 44 44 45 46 47 48
30 29 29 28 25 24 24 23 23 23 21 21 21 20 21 21 18 19 19 17 18 18 19 22 21 18 17 16 13 11 8 5 4 4 5 6 6 5 5 2 2 4 4 4 6 9 12 15 17 18 19 20 21 21 21 22 21 22 24 26 27 28 30 32 34 35 35 35 36 37 38 39 41 41 42 43 43 44 45 46 46 46 46 47 47 49
31 31 30 28 26 25 24 23 23 22 21 21 21 21 23 22 21 22 22 18 19 20 20 21 22 19 18 17 14 11 9 7 5 5 6 7 7 5 4 2 2 4 4 4 5 7 10 12 14 17 19 21 22 22 23 22 22 23 23 26 30 29 30 33 35 35 36 36 36 37 38 39 40 41 43 43 44 45 46 47 48 48 48 49 49 50
32 31 29 27 27 26 26 25 24 23 23 22 23 23 23 23 23 24 24 22 21 21 21 21 22 20 17 16 15 13 11 9 7 6 7 7 6 4 3 2 3 5 6 7 8 10 12 13 15 16 18 21 22 23 24 21 21 25 24 26 30 30 29 34 36 35 36 36 37 37 37 38 39 41 43 44 45 46 47 48 49 49 50 51 52 52
34 31 29 29 29 29 29 27 26 25 25 24 24 23 22 23 22 22 24 23 21 22 21 19 20 20 16 14 15 15 13 11 10 8 7 7 7 6 5 5 5 5 8 11 12 13 13 14 16 18 19 21 22 24 24 21 23 27 25 25 29 30 30 33 36 36 37 37 38 38 38 38 39 41 43 44 46 47 48 49 50 51 52 53 54 54
35 32 32 32 32 31 30 29 28 27 27 26 25 24 23 23 22 22 23 23 22 22 21 20 20 20 18 16 15 15 14 12 12 10 7 7 8 7 7 8 7 6 8 11 13 15 16 16 18 20 20 21 23 24 24 24 26 28 26 26 29 31 32 34 35 37 38 38 38 38 37 38 40 42 43 45 47 48 49 50 50 51 52 54 55 56
38 36 36 35 33 33 32 31 30 29 28 26 25 24 24 23 23 23 23 23 23 22 22 22 21 21 21 20 18 16 15 14 12 11 9 8 7 7 8 8 8 9 10 12 14 16 18 18 20 21 22 23 24 25 26 26 28 29 28 28 30 31 33 35 36 37 38 39 39 38 36 37 41 42 42 45 48 49 49 50 51 52 53 54 55 56
42 39 38 37 35 35 33 32 31 29 28 26 25 25 25 24 23 23 23 23 23 22 23 23 22 21 22 22 20 18 17 15 13 12 10 8 8 8 8 8 9 11 12 14 16 17 18 19 21 23 25 25 25 26 27 28 29 30 30 31 32 31 33 36 37 37 37 38 37 37 37 38 40 40 41 45 48 49 49 51 51 52 53 54 55 57
46 43 41 40 38 36 35 33 33 32 31 29 28 27 26 25 24 23 24 23 23 22 23 24 24 23 22 22 21 20 19 17 15 13 11 10 10 10 10 10 11 12 13 15 17 18 19 20 21 23 24 25 25 27 28 29 30 31 32 33 33 34 35 37 37 35 36 37 37 38 39 39 39 39 41 45 47 48 50 51 52 53 54 55 56 58
50 47 43 41 40 37 36 36 37 37 34 31 30 30 28 27 26 25 25 24 23 23 22 24 26 24 22 23 23 21 21 20 18 16 14 13 12 13 13 14 14 15 15 16 17 18 20 21 21 23 24 25 27 28 30 31 32 33 34 34 34 35 37 38 37 36 37 38 38 39 39 39 40 41 42 44 46 48 49 51 52 53 54 56 58 59
49 48 46 44 43 40 39 41 41 37 33 32 32 31 30 29 28 27 26 26 25 24 24 24 25 23 23 24 23 21 21 21 20 18 17 15 14 16 18 18 19 19 18 18 19 20 23 23 23 24 25 26 28 30 32 34 34 34 35 34 35 37 38 39 39 38 39 40 39 40 40 40 42 43 45 46 47 49 51 52 53 55 56 57 59 62
48 49 49 47 44 44 45 45 42 35 33 35 35 33 32 31 30 29 29 28 27 26 26 26 24 22 23 24 22 21 22 21 20 20 20 18 17 18 20 22 23 23 22 22 23 24 26 27 27 27 28 28 30 31 33 34 35 35 36 36 38 40 40 40 40 40 41 42 40 40 41 42 44 46 47 48 50 51 53 54 55 56 57 59 61 64
50 50 51 49 46 47 48 46 41 37 37 38 35 33 33 32 32 32 31 29 28 28 28 27 26 25 24 24 25 24 24 23 22 23 23 22 21 21 22 25 27 26 27 28 28 29 29 30 31 30 30 31 32 33 33 34 36 37 38 39 40 42 42 41 41 41 42 43 42 42 43 44 46 47 49 50 51 53 54 56 57 59 60 62 64 66
53 51 51 51 49 49 48 47 44 41 40 38 34 33 34 34 34 34 32 31 30 29 28 28 28 28 26 26 27 26 25 25 24 24 23 22 23 23 24 28 30 30 31 32 32 32 30 31 33 32 31 32 34 35 35 36 37 39 39 39 42 44 44 42 42 43 43 44 44 45 45 45 47 49 51 53 54 56 58 59 61 63 64 65 67 70
57 54 52 52 51 49 48 49 47 43 41 40 38 36 36 36 35 34 32 32 31 30 31 30 30 31 29 29 29 28 28 28 26 24 23 23 25 27 29 32 33 33 33 34 33 32 32 33 34 32 32 33 35 36 37 38 39 40 40 41 43 45 44 43 43 44 45 45 45 46 47 47 48 51 53 55 57 59 61 63 64 66 67 68 70 72
60 57 55 53 52 49 48 49 48 45 43 43 43 41 39 37 36 35 33 32 32 32 33 32 33 33 30 30 32 31 30 30 29 28 27 26 27 30 32 33 34 33 34 34 33 33 33 34 34 33 33 35 36 37 39 40 41 42 42 44 46 45 44 44 45 46 46 46 47 48 49 49 51 53 55 57 59 61 62 64 66 67 69 70 72 75
62 61 59 56 53 51 49 49 48 47 46 47 46 43 40 38 37 35 34 34 34 34 33 33 35 34 31 32 35 34 32 31 32 32 30 28 30 32 33 34 34 34 34 34 33 33 33 34 34 35 36 38 39 40 41 42 43 42 43 46 47 46 45 46 48 48 48 48 49 50 51 52 53 55 57 58 61 62 64 65 66 68 70 72 75 77
64 62 61 58 57 54 52 50 49 47 48 49 48 45 43 41 37 34 35 36 36 35 34 35 36 34 32 35 36 34 33 33 33 33 32 31 33 34 35 36 36 35 36 35 34 34 34 35 36 37 38 40 41 42 43 43 44 44 45 46 47 47 47 48 49 49 49 50 51 52 53 54 55 57 59 60 63 64 66 67 69 71 73 75 77 78
65 64 64 63 60 57 54 52 50 48 46 48 48 47 45 42 39 38 39 38 35 34 35 36 35 33 33 35 35 33 33 33 33 33 34 34 35 35 35 36 36 36 37 36 35 36 37 37 38 38 39 41 43 44 44 44 44 45 46 47 48 49 50 50 50 49 50 51 51 53 54 56 57 59 61 63 65 66 68 70 72 74 76 78 79 81
68 67 68 67 64 62 59 57 55 51 49 49 49 46 43 43 45 44 43 41 38 36 35 35 35 34 34 33 31 31 32 33 33 34 35 35 36 36 36 37 37 37 38 37 38 39 39 39 39 39 40 42 43 44 44 44 45 46 47 48 49 51 51 51 50 50 50 51 53 54 56 58 59 61 64 66 67 68 70 72 74 77 79 80 81 83
74 71 68 66 65 64 62 61 58 56 53 50 48 44 42 46 50 48 45 44 41 37 37 37 37 37 35 32 30 30 32 33 33 35 35 35 36 37 37 38 38 38 39 40 40 41 41 41 41 41 42 42 42 43 43 45 46 47 48 50 51 52 52 51 51 51 52 53 55 56 58 60 62 65 67 68 70 72 73 75 77 80 81 82 83 84
78 75 69 66 66 65 63 62 61 58 55 51 46 44 45 49 51 48 46 45 43 40 40 41 40 37 35 32 32 32 32 33 34 35 35 35 36 37 38 39 39 39 40 41 42 42 43 43 43 43 43 43 43 43 44 46 48 49 50 51 52 52 52 52 52 53 54 56 57 59 61 63 66 68 70 72 74 75 76 78 80 82 83 83 84 85
81 78 71 69 70 67 64 63 62 59 57 53 46 45 48 51 52 50 45 44 44 43 43 44 42 39 37 35 35 35 35 36 36 36 36 36 37 38 38 39 39 40 41 42 42 43 44 44 45 45 45 45 46 46 47 48 50 51 51 51 51 52 52 53 54 55 56 58 60 62 65 67 68 71 73 75 76 77 79 81 83 84 85 85 86 88
82 79 74 72 73 70 64 63 62 60 58 52 46 49 54 54 52 50 46 45 45 46 46 47 46 44 41 39 39 39 38 38 38 37 37 37 38 39 39 39 40 41 41 42 43 44 45 46 46 46 47 48 48 49 50 51 51 51 51 50 51 53 54 54 56 57 59 61 63 65 67 69 71 73 75 77 78 80 82 84 85 86 87 88 89 90
83 80 77 76 76 72 66 62 61 62 60 52 46 52 59 59 53 49 47 47 48 48 48 48 47 47 45 43 44 44 43 42 41 40 39 39 40 40 40 41 41 42 42 43 44 45 46 47 48 49 49 50 50 51 51 51 50 50 50 52 53 54 55 57 58 60 62 63 65 67 68 71 74 76 77 79 80 82 84 85 86 87 89 90 92 93
86 83 80 79 79 76 69 63 61 62 62 58 52 51 56 59 56 52 50 51 51 49 48 49 49 49 48 47 48 47 46 45 44 44 44 43 43 43 43 43 44 44 45 46 46 47 47 48 49 50 50 50 51 51 51 50 50 50 51 53 54 56 57 59 61 63 64 65 66 69 72 75 77 78 79 80 82 84 86 87 88 90 92 94 96 97
88 86 83 82 81 78 74 68 64 62 63 65 62 57 55 58 59 58 57 55 51 47 46 49 52 52 51 50 49 47 46 47 47 47 47 47 46 47 46 46 46 47 48 48 48 48 49 49 50 50 50 50 50 51 51 51 51 52 53 55 56 58 60 62 64 65 66 67 69 72 75 78 79 80 81 83 84 85 87 89 92 94 95 97 99 101
91 89 87 84 82 80 77 73 69 65 64 67 68 63 59 60 61 61 61 57 49 45 45 47 51 53 52 51 51 49 48 49 50 50 50 49 49 48 48 48 48 49 49 49 49 49 49 50 50 50 50 50 50 51 52 53 54 55 56 58 60 61 63 64 65 66 68 70 73 76 78 79 81 83 84 84 85 86 88 91 94 97 99 101 102 103
Wind_Direction
39 237 268 358 351 335 321 312 329 327 314 323 331 352 14 9 9 27 60 77 69 66 94 107 101 126 121 90 73 60 53 52 51 48 47 46 42 34 35 27 27 39 32 26 35 34 35 37 38 46 51 55 58 59 61 61 61 61 61 61 59 58 56 54 52 49 48 46 44 42 40 39 38 37 37 37 36 35 34 33 32 31 30 29 28 27
44 303 276 299 330 334 329 322 327 318 301 294 300 350 9 18 24 32 60 88 74 64 80 104 101 107 84 68 62 57 55 59 56 46 47 49 37 30 36 36 41 49 35 30 36 34 39 44 43 49 54 57 60 61 62 63 63 63 62 60 59 56 54 52 51 50 48 47 46 45 44 42 41 40 40 40 39 39 38 36 35 34 32 31 30 28
39 323 282 295 320 326 329 319 310 320 328 266 265 342 356 5 9 17 60 98 94 85 88 89 82 70 56 47 49 59 61 63 59 43 40 42 35 28 33 38 39 43 40 40 41 39 45 49 50 55 58 60 63 64 64 64 63 62 61 59 58 56 55 53 52 52 51 50 49 48 48 47 45 44 43 43 42 41 40 38 37 36 35 33 32 30
304 278 279 299 307 305 325 333 284 284 3 79 107 3 343 343 354 25 92 110 104 91 86 85 75 54 42 32 35 55 63 62 58 43 32 35 40 35 30 33 34 39 49 52 51 52 54 57 59 61 62 63 64 64 64 63 63 61 60 59 58 57 55 54 53 51 51 50 49 48 48 47 46 45 44 43 41 40 38 37 36 35 34 33 32 31
248 251 270 298 305 326 3 357 3 231 253 36 73 79 345 338 3 91 105 100 87 85 84 83 80 55 35 21 20 46 62 65 67 57 38 38 43 41 41 48 50 50 54 57 59 62 62 62 63 63 63 63 63 63 63 62 61 60 59 58 57 56 54 53 52 50 49 48 47 47 46 45 44 43 41 40 38 37 35 33 32 31 30 30 29 28
227 237 245 251 197 74 337 291 275 226 195 34 30 41 347 333 104 92 82 69 62 85 90 78 82 60 28 17 17 43 60 70 81 72 58 58 55 50 51 57 60 63 62 60 60 61 62 63 63 62 62 62 61 61 61 60 60 58 57 56 55 54 52 50 49 48 47 45 44 43 42 41 40 39 38 36 34 32 31 29 28 26 25 24 24 23
230 204 181 191 194 207 264 242 252 261 219 23 355 335 329 300 143 104 83 78 77 104 102 83 82 59 24 19 28 49 62 71 84 81 65 69 68 57 56 59 64 71 68 60 57 58 59 60 60 60 60 60 59 59 58 58 57 56 55 54 52 51 49 47 46 44 43 41 40 38 37 36 35 34 33 32 30 28 27 25 24 22 21 20 19 19
223 178 170 186 198 209 242 253 278 289 286 349 338 317 316 285 152 138 96 85 102 111 96 79 69 47 24 21 42 61 69 76 84 84 72 76 85 70 64 65 64 66 63 56 55 55 56 57 57 58 58 58 58 57 57 56 55 54 53 51 50 48 46 45 43 42 40 38 37 35 34 33 32 31 30 28 27 26 25 24 22 21 19 18 17 15
207 185 170 163 179 215 224 227 231 224 8 345 342 345 208 150 153 155 118 81 141 125 97 80 50 41 40 51 80 87 88 94 90 88 88 88 93 85 78 75 68 65 62 55 53 52 52 52 53 54 54 55 55 54 54 53 52 51 50 49 47 46 44 42 41 40 38 37 36 34 34 33 32 31 29 28 27 26 25 24 23 22 20 19 17 15
189 183 167 153 179 239 234 216 203 174 12 323 146 133 151 152 158 185 193 109 154 146 146 208 198 86 78 76 99 111 107 108 103 97 101 98 94 93 86 78 72 70 61 51 48 47 48 47 48 50 50 51 51 51 51 50 49 48 47 46 45 44 43 41 40 39 38 37 36 36 35 35 33 32 32 31 30 28 27 26 25 24 22 21 19 17
176 175 169 169 193 240 233 211 197 187 201 142 135 126 147 155 165 195 202 138 134 147 157 196 195 112 104 92 105 121 116 117 118 107 105 106 102 101 94 81 78 83 77 52 39 39 43 43 44 46 46 46 46 46 46 46 46 45 44 44 44 43 42 41 41 40 39 39 38 38 37 36 35 34 33 31 30 29 27 26 24 23 21 20 19 18
176 176 175 177 193 208 185 179 178 175 149 132 127 123 139 152 162 175 185 193 156 149 158 181 176 100 120 140 138 137 128 124 125 116 110 108 102 100 99 92 89 96 99 70 39 37 41 40 43 45 43 43 42 43 43 43 43 42 42 42 43 43 42 41 41 40 40 39 39 38 37 35 34 32 30 28 27 26 24 22 21 19 17 16 15 14
185 183 178 175 179 167 147 138 145 150 141 134 130 135 144 151 161 167 176 194 174 165 174 178 181 180 172 159 146 138 129 122 120 113 107 104 99 99 99 96 97 99 96 72 49 48 47 44 45 47 44 42 41 41 41 41 42 41 41 41 41 40 40 39 38 38 37 36 35 33 32 30 29 27 25 23 22 21 20 18 17 15 14 12 11 10
184 179 176 173 169 158 141 131 143 147 138 135 135 147 157 156 165 173 178 189 177 176 178 175 187 194 168 155 143 134 127 121 115 107 101 97 94 95 92 89 96 101 89 68 59 58 54 49 48 47 45 42 40 40 40 40 40 40 40 40 39 38 36 35 34 33 32 31 29 28 27 26 24 23 21 20 18 17 16 15 13 12 10 9 8 8
175 170 168 164 157 154 146 142 156 154 140 140 147 158 166 158 159 177 189 185 171 177 178 171 173 167 159 156 144 133 127 119 111 102 97 95 91 89 85 83 90 93 80 65 62 61 56 49 47 47 44 42 41 40 40 39 38 38 37 37 36 35 33 31 30 29 28 27 26 25 24 23 22 21 20 18 17 15 14 13 12 10 9 8 7 6
176 169 164 158 150 151 151 152 159 153 142 152 162 165 169 163 165 182 192 184 176 180 174 165 167 165 162 159 145 134 126 117 110 104 98 95 92 88 82 79 82 83 75 63 59 58 53 46 45 46 43 42 42 40 39 38 36 35 34 33 32 31 30 28 27 26 25 23 22 22 21 21 20 19 18 17 15 14 13 12 11 10 9 9 8 6
179 174 169 164 156 155 158 161 161 154 153 169 177 174 174 176 182 189 191 182 176 178 173 166 172 170 165 159 146 134 125 116 109 103 99 94 92 90 84 80 78 74 69 62 56 53 48 41 41 41 38 39 39 37 35 34 33 32 31 30 29 27 26 24 23 21 20 19 19 18 18 18 18 17 16 15 14 12 11 11 10 10 10 9 8 7
180 177 176 176 171 166 167 167 166 165 167 168 172 177 178 180 182 184 190 184 178 182 178 168 166 167 165 161 148 134 125 116 108 102 101 101 100 95 89 83 76 70 65 61 57 53 46 38 36 35 31 31 31 27 25 24 24 26 28 28 26 24 22 20 19 17 16 15 15 16 16 16 15 15 14 13 13 12 10 10 9 8 7 7 6 6
184 179 179 182 178 174 174 174 170 170 170 167 169 176 178 178 178 178 185 187 185 185 176 165 162 167 171 172 159 139 128 118 113 113 108 109 108 100 95 88 77 70 63 59 57 52 42 33 30 28 27 28 25 17 13 13 14 16 21 23 22 21 20 18 17 15 14 13 13 13 13 13 12 11 11 11 11 10 9 8 7 6 5 4 3 3
190 185 183 184 180 176 177 177 173 172 175 176 177 181 180 179 180 177 174 182 190 187 180 173 171 175 183 185 176 153 141 134 125 122 118 118 114 105 102 91 75 68 60 56 55 51 40 31 27 24 24 27 26 17 11 8 6 9 13 15 15 15 16 17 16 14 13 11 10 10 9 8 8 8 8 7 7 6 6 5 4 3 2 1 1 360
192 190 190 189 184 179 179 180 179 178 180 180 183 189 188 183 183 181 178 186 197 194 191 185 180 184 189 187 182 169 156 150 138 131 128 127 122 108 100 87 70 60 52 50 50 43 34 31 28 23 20 24 23 15 11 7 2 4 7 6 6 6 7 11 13 12 12 10 9 7 6 5 4 3 3 2 2 1 1 1 0 359 359 358 358 357
198 194 193 192 188 184 182 182 183 184 184 184 188 194 191 185 188 198 198 196 192 195 197 190 187 192 192 189 187 177 165 155 149 151 144 135 128 112 97 83 65 52 45 45 43 36 28 25 26 21 15 17 17 9 7 7 0 359 1 359 359 359 359 2 6 8 9 8 7 6 4 2 1 360 359 359 360 360 359 358 357 356 356 356 355 355
205 198 194 192 191 190 187 184 185 185 186 189 190 190 189 186 190 204 212 205 197 202 202 195 194 198 196 195 191 180 174 166 159 167 166 158 148 131 117 92 63 51 47 43 35 27 21 21 24 22 13 11 10 4 4 5 0 359 358 354 354 354 353 355 359 2 3 4 4 3 1 0 359 358 358 357 358 358 357 356 355 354 353 353 353 353
209 203 198 195 195 197 193 188 188 188 188 191 189 188 190 190 193 203 208 206 204 207 206 201 203 205 200 199 196 189 189 183 175 187 188 184 175 155 147 112 54 45 47 45 35 20 14 17 18 15 12 8 2 358 360 2 1 0 358 356 355 352 350 351 354 356 358 359 359 359 358 358 357 356 356 355 355 355 354 354 353 352 351 351 351 351
211 208 205 201 200 200 198 193 192 193 193 193 192 193 193 192 199 204 201 202 205 205 204 204 207 210 207 206 208 207 206 206 208 209 202 203 202 186 175 163 55 34 23 30 36 16 7 14 12 6 6 4 358 353 354 357 360 358 355 356 355 352 350 352 352 352 354 354 354 355 355 355 355 354 354 353 353 351 351 351 351 351 350 348 348 348
212 211 210 208 206 205 203 201 199 197 196 195 197 199 197 196 201 202 199 203 205 202 204 205 207 211 213 214 217 221 226 234 237 226 218 216 216 210 196 186 31 23 8 354 358 347 339 347 353 353 356 359 356 351 348 350 353 352 349 351 354 353 351 352 352 351 351 351 350 351 351 351 352 352 352 352 351 349 348 348 349 349 349 347 346 345
215 213 212 214 215 213 210 207 205 202 199 198 200 202 203 204 205 202 202 205 204 202 204 207 208 209 214 220 224 230 240 248 246 236 227 218 215 227 245 277 340 351 339 328 337 343 334 324 326 332 341 348 351 350 349 347 344 344 344 345 351 353 348 346 349 350 350 349 348 347 347 348 348 349 349 349 349 348 347 347 348 348 348 347 346 344
218 215 214 216 219 219 216 213 211 209 207 205 205 205 205 208 209 208 208 209 208 205 203 206 210 212 218 228 231 235 244 250 248 240 230 222 215 219 248 273 284 304 317 319 329 342 340 328 323 324 331 340 345 347 348 345 338 339 340 340 346 349 344 342 345 347 348 347 346 345 344 344 345 345 346 346 346 347 347 347 347 346 346 346 345 344
220 216 216 217 219 222 222 219 217 216 213 211 210 208 208 209 211 213 214 213 213 210 206 207 210 211 216 227 233 237 241 244 245 241 232 229 227 226 241 260 269 282 298 310 322 330 331 329 327 326 329 337 343 342 341 341 339 339 338 336 339 342 341 340 342 343 345 345 344 343 341 340 342 342 342 343 344 344 345 346 346 346 345 345 344 343
221 218 218 218 218 221 223 223 223 223 220 217 216 215 213 212 211 214 216 217 216 213 210 211 214 215 219 225 232 238 240 239 241 241 233 230 238 245 248 256 276 291 295 306 317 322 323 324 324 324 328 333 337 336 333 334 337 338 337 334 334 337 338 338 339 339 341 342 342 342 339 336 338 339 339 340 342 342 343 345 345 345 344 344 343 343
222 220 220 221 220 222 222 224 227 228 227 225 225 224 222 220 218 218 219 220 220 217 213 213 218 221 225 230 234 237 239 239 240 240 235 232 238 247 254 262 278 290 296 302 308 310 313 316 316 319 324 327 327 329 328 328 331 334 333 331 331 332 333 334 336 336 337 338 338 339 337 334 335 336 335 337 340 341 342 344 344 344 343 343 343 343
224 220 220 221 222 223 223 225 229 231 229 228 229 229 228 227 225 226 225 224 224 223 219 219 220 221 226 231 232 233 236 240 245 245 242 241 242 248 256 262 268 276 281 288 298 302 303 307 309 313 319 321 321 322 323 325 327 328 328 328 328 329 329 331 333 332 332 334 333 333 334 333 334 334 334 336 338 340 341 342 343 343 342 342 342 343
223 221 220 221 223 224 224 226 230 230 226 226 229 230 229 229 228 229 230 228 227 226 225 225 224 223 226 230 231 234 239 244 249 250 248 247 247 251 256 258 261 266 270 278 289 294 295 300 305 308 313 317 318 319 320 320 322 323 325 326 326 328 328 329 330 329 330 331 331 330 332 333 333 333 334 335 338 339 340 341 341 341 341 341 341 341
224 222 220 221 223 224 224 226 228 227 224 226 230 230 229 230 230 230 232 231 231 231 231 231 230 227 229 233 234 236 240 245 250 251 252 255 253 252 255 259 264 267 270 277 284 287 291 296 299 303 309 312 313 314 316 317 318 320 322 322 323 325 326 326 327 328 329 331 330 330 330 331 331 332 333 335 337 338 339 339 339 339 340 340 340 340
223 223 221 220 221 223 226 228 229 228 227 229 231 230 230 232 232 231 230 230 231 234 235 236 236 234 235 237 238 240 242 246 250 253 257 259 258 259 262 267 270 272 276 282 286 288 291 294 296 299 303 306 308 311 314 316 317 317 317 317 319 322 324 325 327 328 329 330 329 328 328 329 330 331 333 335 336 337 337 337 337 337 337 338 338 338
220 223 223 222 221 223 227 230 231 230 231 232 231 229 232 234 234 233 231 229 230 232 236 238 238 238 240 242 241 242 246 248 253 260 264 263 261 264 269 271 272 275 280 283 285 288 290 292 294 296 299 303 308 310 312 313 314 313 313 314 317 321 324 325 327 328 328 328 327 326 327 328 329 331 332 333 334 334 335 335 335 335 336 336 336 337
217 220 222 222 222 225 227 230 231 231 232 235 234 233 235 236 236 236 235 232 231 232 234 237 239 238 239 242 243 243 246 250 253 259 263 262 260 261 264 266 269 274 279 280 283 286 287 288 292 295 298 303 307 308 309 310 311 312 313 314 317 320 323 324 326 328 328 327 326 326 327 328 328 329 330 330 331 333 333 333 333 334 334 335 335 335
217 219 221 220 221 224 226 227 230 231 233 236 237 236 237 237 236 236 236 236 237 236 235 236 239 238 236 241 245 246 246 247 246 249 254 254 254 255 258 263 269 273 276 278 282 285 285 287 292 297 300 303 305 306 307 308 310 312 314 316 318 320 322 323 325 326 327 326 326 327 327 327 327 327 328 329 330 331 332 332 332 332 333 333 333 333
217 218 220 219 219 223 225 225 227 230 232 235 237 236 237 239 239 238 238 239 241 242 240 238 239 239 236 239 243 244 244 243 241 245 250 252 253 256 261 266 271 274 276 280 284 286 287 291 295 297 299 301 302 304 305 307 309 312 314 317 319 321 323 324 324 325 326 326 327 328 328 328 327 327 328 329 330 331 331 331 331 331 332 332 331 331
217 216 219 219 218 221 224 224 225 227 231 234 236 236 238 239 240 240 241 242 244 245 246 244 244 242 238 237 239 240 240 242 243 246 248 250 255 261 265 269 272 274 277 280 283 285 288 291 294 296 297 299 301 303 305 307 308 311 314 316 319 322 323 323 323 324 325 326 327 328 328 328 327 327 328 329 329 330 330 331 331 331 331 331 330 330
218 217 220 220 218 219 222 223 223 225 228 232 234 235 237 237 237 240 243 244 244 246 246 248 248 246 242 241 241 242 243 244 245 248 249 251 257 262 266 269 271 274 277 280 282 285 287 289 291 295 297 299 301 303 305 307 309 311 314 316 319 321 322 321 322 323 324 325 326 327 327 327 327 327 328 329 329 330 330 330 330 330 330 330 329 330
218 219 220 221 219 218 218 220 221 222 225 230 232 233 235 236 236 239 242 241 240 243 248 252 252 247 245 247 247 247 248 249 249 251 253 255 258 263 267 270 272 275 278 281 284 285 286 289 292 295 297 299 301 303 305 307 309 312 314 316 317 319 319 320 320 321 323 324 324 324 325 325 326 326 327 328 328 329 329 329 329 329 329 329 329 330
218 219 221 222 221 219 218 218 220 223 226 228 231 231 233 237 238 238 239 240 241 242 245 249 249 247 248 250 249 249 251 252 254 255 257 259 262 266 270 272 274 277 280 282 284 285 287 289 292 294 297 299 301 303 305 307 309 312 313 314 315 316 318 318 319 319 320 321 321 322 323 324 324 325 325 326 326 326 327 328 328 328 328 329 330 330
218 219 220 222 223 223 222 220 222 226 228 230 233 234 235 238 239 238 238 239 241 241 241 243 248 251 252 250 246 247 251 256 258 260 262 264 266 269 271 273 275 278 280 282 284 285 287 289 292 294 296 297 299 301 303 306 308 310 311 312 313 315 316 317 316 316 317 318 319 320 321 322 322 323 323 324 324 325 326 326 327 327 328 329 329 329
219 219 219 221 222 223 223 222 222 225 229 231 233 237 239 238 238 238 238 237 238 240 245 249 251 252 251 248 247 251 257 261 262 265 267 269 270 271 272 274 276 278 280 282 284 286 288 290 291 293 295 296 298 300 303 306 307 309 310 312 313 314 315 315 315 315 316 317 318 318 319 320 321 321 321 322 323 324 325 325 325 326 327 327 327 327
220 220 218 219 221 222 223 223 222 223 227 229 230 238 242 241 239 237 238 239 239 240 245 249 251 250 249 250 252 256 261 263 264 266 268 269 270 271 273 275 276 278 279 282 284 286 288 290 291 294 296 297 299 302 305 306 307 308 310 311 313 314 315 315 316 316 316 316 316 317 318 319 319 319 320 321 323 323 323 324 325 325 325 326 326 326
218 220 219 219 221 221 222 223 222 223 226 225 227 235 240 240 239 238 239 241 240 240 242 245 248 250 251 252 256 260 262 263 264 265 267 268 270 272 274 276 277 278 280 282 284 286 288 290 293 296 298 300 302 303 304 305 306 308 310 311 313 315 316 317 317 316 316 316 317 317 318 318 319 319 321 322 322 322 323 323 324 324 324 325 325 325
216 219 219 220 220 220 221 221 221 222 223 220 221 231 235 236 237 238 239 242 241 240 241 244 247 249 251 255 258 261 262 263 265 266 268 269 271 273 275 277 278 280 281 283 285 288 290 293 296 297 299 300 300 301 301 303 305 307 309 312 314 315 316 317 317 317 317 317 318 318 318 319 320 321 322 322 322 321 322 322 323 323 324 324 324 324
215 216 218 221 221 220 219 218 218 221 222 217 216 225 231 232 232 231 233 238 240 240 243 248 251 253 254 256 258 259 261 263 265 268 270 272 273 275 277 279 280 281 283 285 286 289 291 292 293 294 295 295 296 298 300 302 305 307 310 312 313 315 315 316 316 316 317 317 317 318 318 320 321 322 321 321 320 321 321 322 323 323 323 323 323 324
215 215 217 220 222 221 220 218 217 220 221 218 219 224 230 231 231 230 230 234 239 243 248 253 256 256 256 256 256 258 260 263 266 269 271 273 274 276 278 279 280 281 282 284 285 286 287 288 288 289 291 293 295 297 300 303 305 308 310 311 312 313 314 315 315 316 316 316 317 318 319 320 321 320 320 319 320 321 322 323 323 323 323 323 323 323
216 215 215 218 222 223 222 220 219 220 221 221 222 226 230 232 232 232 233 235 238 243 248 255 259 258 256 255 256 258 261 265 267 269 271 272 274 276 277 278 278 279 280 281 283 283 284 285 286 288 289 292 295 298 302 304 306 308 309 310 311 313 314 314 314 315 315 316 317 318 319 319 319 318 319 319 320 321 322 323 323 323 323 323 323 323
Height
10725 10725 10725 10725 10724 10725 10725 10724 10724 10724 10722 10721 10721 10722 10722 10721 10721 10721 10720 10720 10720 10721 10720 10719 10719 10718 10718 10717 10717 10717 10717 10716 10715 10715 10715 10714 10713 10713 10711 10710 10709 10707 10706 10704 10702 10699 10698 10697 10694 10692 10690 10688 10686 10684 10683 10682 10681 10680 10679 10678 10677 10676 10675 10673 10672 10670 10669 10668 10667 10665 10664 10662 10660 10658 10656 10654 10652 10650 10648 10646 10645 10643 10641 10639 10637 10635
10725 10726 10725 10725 10724 10724 10724 10724 10724 10724 10723 10722 10722 10722 10722 10722 10721 10721 10721 10721 10721 10721 10721 10720 10719 10720 10719 10719 10718 10718 10717 10717 10716 10716 10716 10716 10715 10714 10713 10712 10711 10709 10708 10706 10703 10701 10699 10698 10696 10694 10692 10690 10688 10687 10685 10684 10683 10683 10681 10680 10679 10677 10676 10674 10673 10672 10671 10669 10668 10667 10665 10663 10661 10659 10657 10655 10653 10651 10650 10648 10646 10644 10642 10640 10638 10636
10725 10726 10726 10725 10724 10723 10724 10724 10725 10725 10724 10723 10723 10723 10722 10721 10721 10721 10721 10721 10721 10722 10722 10722 10721 10721 10720 10720 10720 10719 10718 10718 10717 10717 10717 10717 10716 10715 10714 10714 10712 10711 10709 10707 10704 10702 10701 10700 10699 10697 10694 10692 10691 10690 10688 10687 10686 10685 10683 10682 10680 10678 10677 10676 10675 10674 10672 10671 10670 10668 10666 10665 10663 10661 10659 10657 10654 10653 10652 10650 10648 10646 10644 10642 10640 10637
10725 10725 10725 10725 10724 10724 10724 10724 10725 10724 10723 10723 10723 10723 10723 10722 10722 10722 10722 10722 10722 10723 10723 10722 10722 10721 10721 10721 10721 10720 10720 10719 10719 10719 10719 10718 10718 10717 10715 10715 10714 10712 10710 10708 10706 10705 10704 10703 10702 10699 10697 10696 10694 10693 10691 10689 10688 10686 10685 10683 10682 10680 10679 10678 10677 10676 10674 10673 10671 10670 10668 10666 10665 10663 10661 10658 10656 10655 10654 10652 10650 10648 10646 10643 10641 10639
10724 10724 10724 10724 10723 10723 10723 10723 10723 10723 10723 10723 10723 10723 10723 10723 10723 10723 10722 10723 10723 10724 10724 10723 10723 10723 10722 10722 10722 10721 10721 10720 10720 10720 10720 10720 10720 10718 10717 10716 10715 10713 10712 10711 10710 10708 10707 10706 10704 10702 10700 10699 10697 10695 10693 10691 10690 10688 10687 10685 10684 10683 10682 10681 10679 10678 10676 10675 10673 10672 10670 10668 10666 10664 10662 10660 10659 10657 10656 10654 10652 10649 10647 10645 10642 10640
10722 10723 10723 10723 10723 10723 10723 10723 10723 10724 10723 10723 10723 10723 10724 10724 10725 10724 10724 10724 10724 10724 10724 10724 10724 10724 10724 10723 10723 10723 10722 10722 10722 10722 10721 10721 10721 10720 10719 10718 10717 10715 10714 10714 10713 10712 10710 10708 10706 10705 10703 10701 10700 10698 10696 10694 10692 10690 10689 10687 10686 10685 10684 10683 10681 10680 10678 10677 10675 10673 10672 10670 10668 10666 10664 10662 10661 10659 10657 10655 10653 10650 10648 10646 10644 10641
10722 10722 10723 10722 10722 10724 10724 10723 10723 10723 10723 10722 10722 10723 10723 10724 10725 10726 10725 10724 10724 10725 10725 10725 10725 10724 10725 10725 10724 10724 10723 10724 10724 10723 10722 10722 10722 10722 10721 10720 10720 10718 10717 10716 10715 10714 10713 10711 10709 10707 10706 10704 10702 10700 10698 10696 10694 10692 10691 10689 10688 10687 10686 10684 10683 10681 10680 10678 10676 10675 10673 10671 10669 10668 10666 10664 10662 10660 10658 10656 10653 10651 10649 10647 10645 10642
10722 10722 10721 10721 10722 10723 10722 10722 10723 10723 10723 10722 10722 10722 10723 10723 10725 10726 10726 10725 10725 10725 10725 10726 10726 10725 10726 10726 10725 10725 10724 10725 10725 10725 10724 10723 10723 10724 10722 10722 10722 10721 10719 10719 10718 10717 10715 10713 10711 10710 10708 10706 10704 10702 10700 10698 10696 10694 10693 10691 10690 10688 10687 10686 10684 10682 10681 10679 10678 10676 10674 10672 10671 10669 10667 10665 10663 10661 10659 10656 10654 10652 10650 10648 10645 10643
10721 10721 10721 10720 10722 10722 10722 10722 10723 10723 10723 10723 10722 10723 10723 10725 10727 10727 10727 10726 10726 10726 10726 10726 10726 10726 10727 10727 10726 10726 10726 10726 10725 10725 10726 10725 10725 10725 10724 10724 10725 10723 10722 10721 10720 10719 10717 10715 10714 10712 10710 10708 10706 10704 10702 10700 10698 10696 10695 10693 10691 10690 10689 10687 10685 10684 10682 10680 10679 10677 10675 10674 10672 10670 10668 10666 10664 10662 10660 10657 10655 10653 10650 10648 10646 10643
10720 10720 10720 10721 10722 10722 10722 10722 10723 10723 10724 10723 10723 10723 10724 10726 10729 10729 10728 10727 10727 10726 10726 10726 10726 10727 10727 10728 10727 10727 10726 10726 10726 10726 10727 10727 10726 10726 10726 10726 10725 10725 10725 10724 10722 10720 10719 10718 10716 10714 10712 10710 10708 10706 10704 10702 10700 10698 10696 10695 10693 10692 10690 10688 10687 10685 10683 10682 10680 10678 10677 10675 10673 10671 10669 10667 10665 10663 10660 10658 10656 10653 10651 10649 10646 10644
10720 10720 10720 10721 10722 10722 10722 10722 10723 10724 10724 10723 10723 10723 10724 10726 10728 10728 10728 10727 10726 10727 10727 10727 10727 10727 10728 10728 10728 10728 10727 10727 10727 10727 10728 10728 10727 10727 10727 10727 10726 10726 10726 10725 10723 10722 10720 10719 10717 10716 10714 10712 10710 10708 10705 10703 10701 10700 10698 10696 10695 10693 10691 10690 10688 10687 10685 10683 10682 10680 10678 10676 10674 10672 10670 10668 10666 10664 10661 10659 10657 10654 10652 10649 10647 10644
10720 10720 10721 10721 10722 10722 10722 10722 10722 10724 10724 10724 10723 10723 10725 10726 10727 10727 10728 10728 10727 10727 10728 10728 10728 10728 10728 10729 10729 10729 10728 10728 10729 10729 10729 10729 10728 10728 10728 10728 10728 10727 10727 10725 10724 10723 10722 10720 10719 10717 10715 10713 10711 10709 10707 10705 10703 10701 10700 10698 10697 10695 10693 10692 10690 10688 10687 10685 10683 10681 10679 10677 10675 10673 10671 10669 10667 10665 10662 10660 10657 10655 10652 10649 10647 10644
10720 10720 10721 10721 10722 10722 10722 10722 10723 10724 10724 10725 10724 10725 10726 10727 10728 10728 10728 10728 10728 10728 10728 10729 10729 10729 10729 10730 10730 10730 10729 10729 10730 10730 10730 10730 10729 10729 10729 10729 10729 10728 10727 10726 10725 10724 10723 10722 10720 10718 10716 10715 10713 10711 10709 10707 10705 10703 10702 10700 10698 10697 10695 10693 10692 10690 10688 10686 10684 10683 10681 10679 10677 10675 10672 10670 10668 10665 10663 10660 10658 10655 10652 10649 10646 10644
10720 10721 10721 10722 10722 10723 10722 10723 10725 10726 10726 10727 10727 10727 10727 10728 10729 10729 10729 10729 10729 10729 10730 10730 10730 10730 10730 10731 10731 10731 10731 10731 10731 10731 10731 10731 10730 10730 10730 10729 10729 10729 10728 10727 10726 10725 10724 10723 10721 10719 10717 10716 10715 10713 10710 10708 10706 10705 10703 10702 10700 10698 10697 10695 10693 10691 10690 10688 10686 10684 10682 10680 10677 10675 10673 10671 10668 10666 10663 10661 10658 10655 10652 10649 10646 10643
10721 10721 10722 10722 10722 10723 10722 10723 10725 10726 10727 10728 10727 10727 10728 10728 10728 10729 10729 10729 10729 10729 10730 10731 10731 10731 10731 10732 10732 10732 10732 10732 10732 10732 10732 10732 10731 10731 10731 10730 10730 10729 10729 10728 10727 10725 10724 10723 10721 10720 10718 10717 10716 10714 10712 10710 10708 10706 10704 10703 10701 10699 10698 10696 10694 10692 10691 10688 10686 10684 10682 10680 10678 10676 10673 10671 10668 10666 10663 10660 10658 10655 10652 10649 10646 10643
10720 10721 10722 10722 10722 10723 10723 10724 10725 10726 10727 10728 10728 10727 10728 10728 10728 10728 10729 10729 10729 10729 10730 10731 10731 10731 10732 10733 10733 10733 10733 10733 10733 10733 10733 10732 10732 10732 10732 10731 10731 10730 10730 10729 10727 10726 10724 10723 10722 10721 10719 10718 10717 10715 10713 10711 10709 10707 10705 10704 10702 10700 10698 10697 10695 10693 10691 10689 10687 10685 10683 10680 10678 10676 10673 10671 10668 10666 10663 10660 10657 10655 10652 10649 10646 10643
10720 10721 10721 10722 10722 10723 10723 10724 10725 10725 10726 10727 10727 10727 10728 10728 10729 10729 10729 10729 10730 10730 10731 10731 10731 10732 10733 10734 10734 10734 10734 10734 10734 10733 10733 10733 10733 10733 10732 10732 10732 10731 10730 10729 10728 10727 10725 10724 10723 10722 10720 10719 10717 10716 10714 10712 10710 10708 10706 10705 10703 10701 10699 10697 10695 10693 10691 10689 10687 10685 10683 10681 10678 10676 10673 10671 10668 10665 10663 10660 10657 10654 10651 10648 10645 10642
10719 10720 10720 10721 10721 10722 10723 10724 10724 10724 10725 10726 10727 10727 10728 10728 10729 10729 10729 10729 10730 10730 10731 10731 10732 10733 10734 10735 10735 10734 10734 10734 10734 10734 10734 10734 10734 10733 10733 10732 10732 10732 10731 10730 10729 10728 10727 10725 10724 10722 10721 10719 10717 10715 10714 10713 10711 10709 10707 10705 10704 10702 10700 10698 10696 10694 10692 10690 10687 10685 10683 10680 10678 10676 10673 10670 10668 10665 10662 10659 10657 10654 10651 10647 10644 10641
10717 10718 10719 10720 10720 10720 10721 10723 10724 10724 10725 10725 10726 10727 10728 10728 10729 10729 10729 10730 10730 10730 10731 10731 10732 10734 10735 10735 10735 10735 10735 10735 10735 10735 10735 10735 10735 10734 10733 10733 10732 10732 10731 10730 10729 10728 10727 10726 10724 10723 10721 10719 10717 10715 10714 10713 10712 10709 10707 10706 10704 10703 10701 10699 10696 10694 10692 10690 10688 10685 10683 10680 10678 10675 10672 10670 10667 10664 10661 10659 10656 10653 10650 10646 10643 10640
10715 10717 10718 10718 10719 10719 10720 10721 10722 10724 10725 10725 10726 10727 10727 10728 10729 10729 10729 10730 10730 10731 10731 10731 10732 10733 10734 10734 10735 10735 10734 10735 10735 10735 10735 10735 10735 10735 10734 10734 10733 10732 10732 10731 10730 10728 10727 10726 10725 10723 10722 10720 10718 10717 10715 10713 10712 10710 10708 10706 10705 10703 10701 10699 10697 10695 10692 10690 10688 10685 10682 10680 10677 10675 10672 10669 10667 10664 10661 10658 10655 10652 10649 10645 10642 10639
10713 10714 10716 10718 10718 10719 10719 10720 10721 10723 10724 10725 10726 10726 10727 10728 10728 10729 10729 10730 10730 10731 10731 10732 10732 10733 10733 10734 10734 10734 10734 10735 10735 10735 10735 10735 10735 10735 10735 10734 10733 10733 10732 10731 10730 10729 10728 10727 10725 10724 10723 10721 10719 10718 10716 10714 10712 10711 10708 10706 10705 10704 10702 10700 10697 10695 10692 10690 10687 10685 10682 10680 10677 10675 10672 10669 10666 10663 10660 10657 10654 10651 10648 10644 10641 10638
10711 10712 10714 10716 10717 10718 10719 10719 10720 10721 10722 10724 10724 10725 10727 10727 10728 10729 10729 10729 10730 10731 10731 10732 10732 10732 10733 10733 10734 10734 10734 10735 10735 10735 10736 10735 10735 10735 10735 10734 10734 10733 10732 10731 10730 10729 10728 10727 10726 10724 10723 10721 10720 10719 10717 10715 10713 10711 10709 10707 10705 10704 10702 10700 10697 10695 10692 10690 10687 10685 10682 10680 10677 10674 10671 10669 10666 10663 10659 10657 10653 10650 10647 10643 10640 10636
10708 10710 10711 10713 10715 10716 10717 10718 10719 10720 10721 10722 10723 10724 10725 10726 10727 10728 10729 10729 10730 10730 10730 10731 10732 10732 10732 10733 10734 10734 10735 10735 10735 10735 10736 10735 10735 10735 10735 10735 10734 10733 10732 10731 10730 10730 10730 10728 10726 10725 10724 10722 10721 10720 10718 10716 10714 10712 10710 10708 10706 10704 10702 10699 10697 10694 10692 10689 10687 10684 10682 10679 10677 10674 10671 10668 10665 10662 10659 10656 10652 10649 10645 10642 10638 10635
10705 10708 10709 10711 10712 10714 10715 10716 10717 10718 10719 10720 10721 10722 10723 10725 10726 10727 10727 10728 10729 10729 10730 10731 10731 10732 10732 10733 10734 10734 10735 10735 10735 10735 10735 10735 10735 10735 10735 10735 10734 10733 10732 10730 10730 10730 10730 10728 10726 10726 10725 10723 10722 10720 10718 10717 10714 10712 10710 10708 10706 10703 10701 10699 10696 10694 10691 10689 10686 10684 10681 10678 10676 10673 10670 10667 10664 10661 10658 10654 10651 10648 10644 10641 10637 10633
10703 10705 10706 10708 10710 10712 10714 10715 10716 10717 10718 10719 10720 10721 10722 10723 10724 10725 10726 10726 10727 10728 10729 10731 10731 10731 10732 10733 10734 10734 10734 10735 10735 10735 10735 10735 10735 10735 10735 10734 10734 10733 10732 10730 10729 10729 10729 10728 10726 10725 10724 10723 10722 10720 10718 10716 10714 10712 10710 10708 10706 10703 10701 10698 10695 10692 10690 10688 10685 10683 10680 10677 10675 10672 10669 10666 10663 10660 10656 10653 10650 10646 10643 10639 10635 10632
10699 10701 10703 10706 10708 10710 10711 10713 10714 10716 10717 10718 10719 10719 10720 10721 10722 10723 10724 10724 10725 10726 10727 10729 10730 10731 10732 10732 10733 10734 10734 10734 10734 10735 10735 10735 10735 10735 10735 10734 10734 10733 10732 10731 10729 10728 10728 10727 10726 10725 10724 10723 10721 10720 10718 10716 10714 10712 10710 10708 10705 10703 10700 10697 10695 10692 10689 10687 10684 10682 10679 10676 10673 10670 10668 10664 10661 10658 10655 10651 10648 10644 10641 10637 10634 10630
10696 10698 10701 10703 10705 10707 10708 10710 10712 10713 10715 10716 10717 10718 10719 10719 10720 10721 10722 10722 10723 10724 10726 10728 10729 10730 10731 10731 10732 10733 10733 10734 10734 10734 10734 10734 10734 10734 10735 10734 10733 10732 10731 10730 10728 10727 10727 10726 10725 10723 10722 10722 10721 10719 10718 10716 10714 10712 10710 10707 10705 10702 10699 10697 10694 10692 10689 10686 10683 10680 10678 10675 10672 10669 10666 10663 10659 10656 10653 10649 10646 10642 10638 10635 10631 10627
10692 10695 10698 10700 10701 10703 10705 10707 10709 10711 10712 10713 10715 10716 10717 10718 10719 10720 10720 10721 10722 10723 10725 10727 10728 10729 10730 10730 10731 10731 10732 10732 10732 10733 10733 10733 10732 10732 10733 10732 10731 10729 10728 10728 10728 10726 10725 10724 10723 10721 10720 10720 10719 10718 10717 10716 10714 10711 10709 10707 10705 10702 10700 10697 10694 10691 10688 10685 10682 10679 10676 10673 10670 10667 10664 10661 10658 10654 10651 10647 10643 10639 10636 10632 10628 10625
10688 10692 10694 10695 10697 10699 10701 10704 10706 10707 10709 10711 10712 10714 10715 10716 10717 10718 10719 10720 10721 10722 10724 10725 10726 10727 10728 10729 10729 10730 10731 10731 10731 10731 10732 10731 10731 10730 10730 10730 10729 10728 10726 10727 10726 10725 10724 10723 10721 10720 10718 10718 10718 10717 10715 10714 10712 10709 10707 10705 10704 10701 10699 10696 10693 10689 10686 10683 10680 10677 10674 10671 10668 10665 10662 10659 10655 10652 10648 10645 10641 10638 10634 10630 10626 10622
10684 10687 10689 10691 10693 10695 10697 10700 10702 10704 10706 10708 10710 10711 10713 10714 10715 10716 10717 10718 10719 10721 10722 10724 10725 10725 10726 10727 10727 10728 10729 10729 10730 10730 10730 10730 10729 10729 10728 10728 10728 10727 10726 10726 10725 10724 10723 10721 10719 10718 10717 10716 10715 10714 10713 10711 10709 10708 10705 10703 10701 10699 10697 10694 10691 10688 10685 10682 10679 10676 10672 10669 10666 10663 10660 10657 10653 10650 10646 10643 10639 10635 10632 10628 10624 10619
10679 10682 10684 10687 10689 10691 10694 10696 10698 10701 10703 10705 10708 10709 10710 10711 10713 10714 10715 10716 10717 10718 10720 10722 10723 10723 10724 10725 10726 10726 10727 10727 10728 10728 10729 10728 10728 10728 10728 10728 10727 10727 10726 10725 10724 10723 10721 10719 10718 10716 10716 10714 10713 10712 10711 10709 10707 10706 10704 10702 10699 10697 10695 10693 10690 10687 10684 10681 10678 10675 10672 10668 10665 10662 10658 10655 10651 10648 10644 10641 10637 10633 10629 10625 10621 10617
10674 10677 10679 10682 10686 10688 10690 10693 10695 10697 10698 10701 10704 10705 10707 10709 10710 10711 10713 10714 10715 10716 10718 10719 10720 10721 10722 10723 10724 10724 10725 10725 10726 10727 10727 10727 10728 10727 10727 10727 10727 10726 10726 10724 10722 10721 10720 10718 10717 10716 10715 10713 10712 10711 10709 10707 10705 10704 10702 10700 10697 10695 10693 10691 10689 10686 10683 10680 10677 10674 10671 10668 10665 10662 10658 10654 10650 10646 10642 10638 10634 10631 10627 10623 10619 10614
10667 10671 10675 10679 10682 10684 10687 10689 10690 10691 10694 10698 10700 10702 10703 10705 10707 10708 10709 10711 10713 10714 10716 10717 10717 10719 10720 10721 10721 10722 10723 10724 10724 10725 10725 10726 10726 10726 10726 10726 10726 10726 10725 10722 10721 10719 10718 10717 10716 10715 10714 10712 10710 10709 10706 10704 10703 10701 10699 10697 10695 10693 10691 10689 10687 10684 10682 10679 10675 10672 10669 10666 10663 10661 10657 10654 10650 10645 10641 10636 10633 10629 10626 10621 10617 10613
10661 10666 10670 10673 10677 10680 10681 10683 10684 10687 10692 10696 10697 10698 10700 10702 10703 10705 10706 10708 10710 10711 10712 10713 10715 10717 10718 10718 10719 10720 10721 10721 10722 10722 10723 10723 10724 10724 10724 10724 10724 10723 10722 10721 10719 10717 10716 10715 10714 10713 10712 10711 10709 10707 10705 10702 10700 10698 10696 10695 10693 10691 10689 10687 10684 10682 10679 10676 10673 10669 10666 10664 10661 10658 10654 10650 10646 10642 10638 10635 10631 10627 10623 10619 10615 10610
10658 10661 10663 10667 10671 10674 10675 10676 10680 10685 10690 10692 10693 10695 10697 10698 10699 10701 10703 10705 10706 10708 10709 10710 10712 10714 10715 10715 10716 10717 10718 10719 10719 10720 10721 10722 10722 10722 10722 10722 10721 10720 10719 10718 10717 10715 10714 10712 10712 10711 10709 10708 10707 10706 10703 10701 10699 10696 10694 10692 10690 10688 10686 10684 10682 10678 10675 10673 10670 10667 10663 10660 10657 10653 10649 10645 10642 10638 10635 10632 10628 10625 10621 10617 10612 10608
10653 10655 10658 10663 10667 10668 10670 10673 10678 10683 10686 10687 10689 10692 10694 10696 10697 10699 10700 10702 10704 10705 10706 10708 10709 10711 10712 10712 10713 10714 10715 10716 10717 10717 10718 10719 10719 10719 10719 10718 10717 10716 10716 10715 10714 10713 10712 10710 10709 10708 10707 10706 10704 10703 10701 10699 10697 10694 10692 10690 10687 10685 10683 10681 10678 10676 10672 10669 10666 10663 10660 10656 10653 10649 10645 10642 10639 10636 10633 10629 10626 10622 10618 10613 10609 10605
10647 10649 10653 10658 10662 10664 10668 10671 10675 10679 10682 10684 10686 10690 10691 10693 10694 10696 10698 10700 10701 10703 10704 10705 10706 10707 10709 10709 10710 10712 10713 10713 10714 10715 10715 10716 10716 10716 10716 10714 10713 10713 10713 10711 10710 10710 10709 10708 10706 10704 10704 10703 10701 10700 10698 10696 10694 10692 10691 10688 10685 10682 10680 10678 10675 10672 10669 10666 10663 10660 10656 10653 10649 10646 10643 10639 10636 10632 10629 10625 10621 10617 10613 10608 10603 10599
10641 10644 10648 10652 10657 10660 10664 10667 10671 10676 10679 10681 10683 10686 10687 10688 10690 10693 10695 10697 10699 10700 10701 10702 10703 10704 10706 10707 10707 10709 10710 10710 10711 10712 10712 10713 10713 10713 10712 10710 10710 10710 10709 10708 10707 10706 10705 10704 10703 10701 10701 10700 10698 10697 10695 10694 10691 10689 10687 10685 10683 10680 10677 10675 10672 10669 10666 10663 10660 10656 10653 10649 10646 10642 10639 10635 10631 10628 10624 10620 10616 10612 10607 10603 10599 10594
10635 10639 10643 10647 10652 10655 10659 10664 10668 10672 10675 10676 10678 10681 10682 10684 10686 10689 10691 10694 10696 10696 10697 10699 10700 10700 10704 10705 10704 10704 10706 10707 10708 10708 10709 10710 10710 10709 10708 10707 10707 10706 10705 10704 10703 10702 10701 10701 10699 10698 10697 10696 10695 10694 10692 10691 10689 10686 10684 10681 10679 10676 10673 10670 10668 10665 10662 10659 10655 10652 10649 10646 10642 10638 10635 10631 10627 10623 10620 10616 10611 10607 10602 10598 10593 10589
10629 10633 10637 10642 10647 10650 10654 10660 10664 10668 10670 10671 10673 10676 10679 10680 10682 10685 10689 10691 10692 10693 10695 10696 10696 10697 10701 10702 10700 10700 10702 10704 10704 10704 10704 10706 10705 10704 10704 10704 10703 10702 10701 10701 10700 10699 10698 10697 10696 10695 10694 10693 10692 10690 10689 10687 10685 10683 10680 10677 10674 10672 10669 10666 10663 10660 10657 10654 10651 10647 10644 10641 10637 10634 10630 10626 10622 10618 10615 10611 10606 10602 10597 10592 10587 10582
10623 10629 10632 10636 10641 10645 10649 10655 10659 10662 10664 10666 10669 10672 10674 10676 10679 10683 10685 10686 10687 10689 10691 10691 10692 10695 10697 10697 10696 10698 10700 10700 10700 10700 10700 10701 10701 10701 10700 10700 10699 10698 10697 10697 10696 10696 10695 10694 10693 10692 10691 10689 10688 10686 10684 10683 10680 10678 10676 10673 10671 10668 10665 10662 10659 10656 10653 10650 10646 10643 10640 10636 10633 10629 10625 10621 10617 10613 10608 10604 10600 10596 10592 10587 10582 10576
10617 10622 10625 10628 10634 10639 10643 10648 10652 10656 10660 10661 10663 10666 10670 10674 10677 10679 10679 10680 10683 10686 10686 10686 10688 10690 10691 10691 10692 10695 10696 10695 10696 10696 10696 10697 10697 10697 10697 10696 10695 10694 10693 10693 10693 10692 10691 10691 10690 10689 10688 10686 10684 10682 10680 10678 10676 10673 10671 10669 10666 10664 10661 10657 10654 10651 10649 10645 10642 10639 10635 10632 10628 10624 10620 10617 10613 10608 10603 10599 10594 10590 10586 10581 10575 10570
10610 10613 10617 10621 10627 10632 10636 10642 10647 10651 10655 10655 10656 10662 10669 10671 10671 10672 10674 10676 10679 10681 10682 10682 10682 10684 10685 10686 10689 10691 10692 10692 10692 10692 10692 10693 10693 10693 10692 10692 10691 10691 10690 10690 10689 10688 10688 10687 10686 10685 10684 10682 10680 10678 10676 10674 10672 10669 10667 10664 10662 10659 10656 10653 10650 10647 10645 10641 10638 10635 10631 10627 10624 10620 10616 10613 10609 10604 10600 10595 10590 10585 10580 10575 10570 10564
10601 10605 10610 10617 10622 10626 10631 10637 10644 10648 10651 10652 10655 10661 10666 10665 10664 10667 10671 10673 10675 10677 10678 10677 10678 10679 10681 10683 10685 10687 10688 10688 10688 10688 10688 10689 10689 10688 10688 10687 10687 10687 10687 10686 10686 10685 10684 10683 10682 10681 10680 10679 10677 10675 10672 10670 10668 10666 10663 10660 10657 10655 10653 10649 10646 10643 10640 10637 10634 10630 10627 10623 10619 10616 10612 10608 10604 10599 10595 10590 10585 10580 10575 10570 10565 10560
10592 10597 10605 10612 10616 10620 10626 10632 10639 10645 10648 10651 10655 10660 10662 10659 10660 10664 10668 10670 10672 10674 10674 10673 10674 10676 10677 10679 10680 10682 10683 10684 10684 10684 10684 10684 10684 10684 10684 10684 10684 10684 10684 10683 10682 10680 10679 10678 10677 10677 10676 10674 10673 10671 10669 10666 10663 10661 10660 10657 10653 10651 10648 10646 10642 10639 10636 10632 10629 10626 10622 10618 10614 10610 10607 10603 10598 10593 10589 10584 10579 10575 10570 10566 10561 10556
10583 10590 10600 10605 10607 10612 10619 10625 10632 10639 10643 10648 10655 10659 10658 10656 10658 10662 10666 10668 10670 10671 10670 10669 10670 10672 10674 10675 10676 10678 10679 10680 10681 10681 10680 10680 10680 10680 10680 10680 10681 10680 10679 10678 10677 10676 10675 10674 10673 10672 10671 10670 10668 10666 10664 10662 10659 10656 10655 10653 10650 10646 10644 10641 10638 10635 10631 10628 10624 10621 10617 10614 10610 10605 10600 10596 10591 10587 10582 10578 10573 10568 10563 10559 10554 10549
10577 10585 10593 10596 10598 10605 10613 10620 10627 10633 10637 10645 10653 10654 10652 10652 10655 10660 10663 10665 10666 10667 10666 10666 10667 10669 10670 10671 10673 10674 10675 10676 10676 10677 10677 10676 10676 10677 10677 10677 10677 10676 10675 10674 10673 10672 10671 10670 10669 10668 10666 10664 10663 10661 10659 10658 10655 10652 10650 10648 10645 10642 10639 10636 10633 10630 10627 10623 10620 10616 10612 10609 10605 10600 10595 10590 10585 10580 10575 10570 10566 10561 10556 10551 10547 10542
10572 10578 10585 10587 10591 10599 10608 10614 10621 10626 10631 10639 10645 10645 10644 10647 10654 10658 10659 10659 10660 10661 10662 10664 10665 10666 10667 10669 10669 10669 10670 10672 10672 10672 10672 10673 10673 10673 10673 10673 10672 10672 10671 10670 10669 10668 10667 10666 10664 10663 10661 10659 10658 10656 10655 10653 10652 10649 10645 10643 10640 10637 10634 10631 10628 10625 10622 10618 10615 10611 10607 10603 10599 10594 10589 10584 10579 10574 10569 10564 10559 10553 10548 10543 10538 10533
10564 10570 10576 10579 10584 10592 10602 10609 10614 10619 10624 10630 10634 10636 10637 10641 10649 10652 10651 10650 10653 10657 10660 10662 10662 10664 10665 10666 10665 10666 10667 10667 10668 10668 10668 10668 10668 10668 10669 10668 10668 10667 10666 10665 10664 10664 10663 10661 10660 10658 10657 10655 10653 10652 10650 10649 10647 10644 10641 10638 10636 10633 10630 10627 10623 10620 10616 10613 10609 10606 10601 10597 10593 10588 10584 10579 10574 10568 10562 10556 10551 10547 10541 10534 10527 10521
10556 10563 10568 10572 10578 10586 10595 10602 10606 10610 10616 10621 10624 10627 10630 10633 10639 10643 10643 10646 10651 10656 10659 10659 10658 10659 10661 10661 10661 10663 10663 10663 10664 10664 10664 10664 10664 10664 10664 10664 10663 10662 10661 10660 10660 10660 10659 10657 10656 10654 10653 10651 10649 10647 10645 10643 10641 10639 10636 10633 10631 10628 10625 10622 10618 10615 10611 10607 10604 10600 10596 10591 10587 10582 10578 10574 10569 10562 10555 10548 10541 10536 10531 10525 10519 10511
10547 10555 10560 10565 10573 10581 10588 10594 10598 10603 10609 10612 10615 10619 10621 10624 10630 10636 10640 10647 10653 10656 10657 10656 10653 10652 10655 10657 10658 10660 10660 10660 10660 10660 10659 10659 10660 10659 10659 10659 10659 10658 10657 10656 10656 10655 10654 10653 10652 10650 10649 10647 10645 10642 10640 10637 10635 10632 10630 10628 10625 10623 10620 10617 10613 10610 10606 10602 10598 10594 10590 10586 10581 10577 10572 10567 10562 10557 10551 10544 10535 10526 10519 10514 10509 10504